Hourly Weather Kleban-Byk

Today, 29 July, Thursday

Time Temperature Precipitation Wind Pressure Humidity
00:00 +25°C° 0 mm 3 mps 749 mmHg 52%
01:00 +25°C° 0 mm 3 mps 749 mmHg 55%
02:00 +24°C° 0 mm 3 mps 749 mmHg 58%
03:00 +22°C° 0 mm 3 mps 749 mmHg 62%
04:00 +22°C° 0 mm 3 mps 749 mmHg 62%
05:00 +22°C° 0 mm 3 mps 748 mmHg 63%
06:00 +22°C° 0 mm 3 mps 748 mmHg 63%
07:00 +25°C° 0 mm 3 mps 748 mmHg 58%
08:00 +27°C° 0 mm 4 mps 748 mmHg 54%
09:00 +29°C° 0 mm 4 mps 748 mmHg 49%
10:00 +32°C° 0 mm 5 mps 748 mmHg 45%
11:00 +33°C° 0 mm 5 mps 748 mmHg 41%
12:00 +34°C° 0 mm 5 mps 748 mmHg 37%
13:00 +34°C° 0 mm 5 mps 748 mmHg 37%
14:00 +35°C° 0 mm 5 mps 747 mmHg 37%
15:00 +35°C° 0 mm 5 mps 747 mmHg 37%
16:00 +34°C° 0.1 mm 4 mps 747 mmHg 41%
17:00 +33°C° 0.1 mm 3 mps 746 mmHg 45%
18:00 +31°C° 0.1 mm 3 mps 746 mmHg 49%
19:00 +29°C° 0.3 mm 3 mps 746 mmHg 57%
20:00 +27°C° 0.3 mm 3 mps 746 mmHg 64%
21:00 +25°C° 0.3 mm 3 mps 746 mmHg 72%
22:00 +25°C° 0.3 mm 3 mps 746 mmHg 75%
23:00 +24°C° 0.3 mm 3 mps 746 mmHg 79%

Tomorrow, 30 July, Friday

Time Temperature Precipitation Wind Pressure Humidity
00:00 +24°C° 0.3 mm 3 mps 746 mmHg 83%
01:00 +23°C° 0.1 mm 2 mps 746 mmHg 83%
02:00 +23°C° 0.1 mm 2 mps 746 mmHg 84%
03:00 +23°C° 0.1 mm 1 mps 746 mmHg 84%
04:00 +23°C° 0.1 mm 2 mps 746 mmHg 84%
05:00 +23°C° 0.1 mm 2 mps 746 mmHg 84%
06:00 +23°C° 0.1 mm 2 mps 746 mmHg 84%
07:00 +24°C° 0 mm 2 mps 746 mmHg 77%
08:00 +26°C° 0 mm 3 mps 746 mmHg 71%
09:00 +28°C° 0 mm 3 mps 746 mmHg 64%
10:00 +29°C° 0 mm 3 mps 746 mmHg 58%
11:00 +32°C° 0 mm 4 mps 746 mmHg 52%
12:00 +33°C° 0 mm 4 mps 746 mmHg 47%
13:00 +34°C° 0 mm 4 mps 746 mmHg 45%
14:00 +35°C° 0 mm 4 mps 745 mmHg 43%
15:00 +35°C° 0 mm 5 mps 745 mmHg 41%
16:00 +34°C° 0 mm 4 mps 745 mmHg 43%
17:00 +34°C° 0 mm 4 mps 744 mmHg 46%
18:00 +33°C° 0 mm 4 mps 744 mmHg 48%
19:00 +30°C° 0.2 mm 3 mps 744 mmHg 54%
20:00 +28°C° 0.2 mm 3 mps 744 mmHg 60%
21:00 +26°C° 0.2 mm 3 mps 745 mmHg 65%
22:00 +25°C° 0.6 mm 2 mps 745 mmHg 71%
23:00 +24°C° 0.6 mm 2 mps 745 mmHg 77%

Day after tomorrow, 31 July, Saturday

Time Temperature Precipitation Wind Pressure Humidity
00:00 +23°C° 0.6 mm 2 mps 745 mmHg 82%
01:00 +23°C° 0 mm 1 mps 745 mmHg 83%
02:00 +23°C° 0 mm 1 mps 745 mmHg 84%
03:00 +21°C° 0 mm 0 mps 745 mmHg 85%
04:00 +23°C° 0.1 mm 1 mps 745 mmHg 85%
05:00 +23°C° 0.1 mm 1 mps 745 mmHg 85%
06:00 +23°C° 0.1 mm 1 mps 745 mmHg 85%
07:00 +24°C° 0 mm 2 mps 746 mmHg 78%
08:00 +26°C° 0 mm 2 mps 746 mmHg 72%
09:00 +27°C° 0 mm 2 mps 746 mmHg 65%
10:00 +29°C° 0 mm 2 mps 746 mmHg 59%
11:00 +30°C° 0 mm 2 mps 746 mmHg 54%
12:00 +31°C° 0 mm 3 mps 746 mmHg 49%
13:00 +31°C° 0.1 mm 2 mps 746 mmHg 49%
14:00 +31°C° 0.1 mm 2 mps 746 mmHg 49%
15:00 +31°C° 0.1 mm 2 mps 746 mmHg 48%
16:00 +31°C° 0.2 mm 2 mps 746 mmHg 52%
17:00 +30°C° 0.2 mm 2 mps 746 mmHg 55%
18:00 +29°C° 0.2 mm 2 mps 746 mmHg 59%
19:00 +28°C° 0.1 mm 2 mps 746 mmHg 62%
20:00 +27°C° 0.1 mm 3 mps 746 mmHg 66%
21:00 +26°C° 0.1 mm 3 mps 747 mmHg 69%
22:00 +25°C° 0 mm 3 mps 747 mmHg 71%
23:00 +25°C° 0 mm 2 mps 747 mmHg 73%

1 August, Sunday

Time Temperature Precipitation Wind Pressure Humidity
00:00 +24°C° 0 mm 2 mps 747 mmHg 74%
01:00 +24°C° 0 mm 2 mps 747 mmHg 74%
02:00 +24°C° 0 mm 2 mps 747 mmHg 74%
03:00 +24°C° 0 mm 1 mps 747 mmHg 74%
04:00 +23°C° 0 mm 1 mps 747 mmHg 75%
05:00 +23°C° 0 mm 1 mps 747 mmHg 75%
06:00 +23°C° 0 mm 1 mps 747 mmHg 75%
07:00 +25°C° 0 mm 1 mps 747 mmHg 68%
08:00 +27°C° 0 mm 2 mps 747 mmHg 61%
09:00 +29°C° 0 mm 2 mps 747 mmHg 54%
10:00 +31°C° 0 mm 2 mps 747 mmHg 49%
11:00 +32°C° 0 mm 2 mps 747 mmHg 43%
12:00 +34°C° 0 mm 1 mps 747 mmHg 38%
13:00 +34°C° 0 mm 1 mps 747 mmHg 35%
14:00 +35°C° 0 mm 1 mps 747 mmHg 32%
15:00 +36°C° 0 mm 1 mps 746 mmHg 29%
16:00 +36°C° 0 mm 1 mps 746 mmHg 30%
17:00 +36°C° 0 mm 2 mps 746 mmHg 32%
18:00 +36°C° 0 mm 2 mps 746 mmHg 34%
19:00 +33°C° 0 mm 1 mps 746 mmHg 38%
20:00 +31°C° 0 mm 1 mps 746 mmHg 43%
21:00 +29°C° 0 mm 1 mps 746 mmHg 48%
22:00 +28°C° 0 mm 1 mps 746 mmHg 49%
23:00 +28°C° 0 mm 1 mps 746 mmHg 51%

2 August, Monday

Time Temperature Precipitation Wind Pressure Humidity
00:00 +27°C° 0 mm 1 mps 746 mmHg 52%
01:00 +27°C° 0 mm 1 mps 746 mmHg 53%
02:00 +26°C° 0 mm 1 mps 746 mmHg 53%
03:00 +26°C° 0 mm 1 mps 746 mmHg 53%
04:00 +26°C° 0 mm 1 mps 746 mmHg 53%
05:00 +26°C° 0 mm 1 mps 746 mmHg 53%
06:00 +24°C° 0 mm 0 mps 746 mmHg 52%
07:00 +26°C° 0 mm 0 mps 746 mmHg 47%
08:00 +28°C° 0 mm 0 mps 746 mmHg 41%
09:00 +30°C° 0 mm 0 mps 746 mmHg 36%
10:00 +32°C° 0 mm 0 mps 746 mmHg 33%
11:00 +33°C° 0 mm 0 mps 746 mmHg 30%
12:00 +35°C° 0 mm 0 mps 746 mmHg 27%
13:00 +37°C° 0 mm 1 mps 746 mmHg 26%
14:00 +39°C° 0 mm 2 mps 745 mmHg 25%
15:00 +39°C° 0 mm 3 mps 745 mmHg 25%
16:00 +38°C° 0 mm 3 mps 745 mmHg 27%
17:00 +38°C° 0 mm 3 mps 745 mmHg 30%
18:00 +37°C° 0 mm 3 mps 744 mmHg 33%
19:00 +35°C° 0 mm 3 mps 745 mmHg 36%
20:00 +33°C° 0 mm 3 mps 745 mmHg 40%
21:00 +30°C° 0 mm 2 mps 745 mmHg 44%
22:00 +30°C° 0 mm 2 mps 745 mmHg 44%
23:00 +29°C° 0 mm 2 mps 745 mmHg 44%

3 August, Tuesday

Time Temperature Precipitation Wind Pressure Humidity
00:00 +28°C° 0 mm 2 mps 745 mmHg 44%
01:00 +27°C° 0 mm 2 mps 745 mmHg 48%
02:00 +26°C° 0 mm 2 mps 745 mmHg 51%
03:00 +25°C° 0 mm 2 mps 745 mmHg 55%
04:00 +25°C° 0 mm 2 mps 746 mmHg 59%
05:00 +24°C° 0 mm 2 mps 746 mmHg 63%
06:00 +24°C° 0 mm 3 mps 746 mmHg 68%
07:00 +25°C° 0 mm 3 mps 747 mmHg 64%
08:00 +27°C° 0 mm 4 mps 747 mmHg 60%
09:00 +28°C° 0 mm 4 mps 747 mmHg 57%
10:00 +29°C° 0 mm 4 mps 747 mmHg 53%
11:00 +30°C° 0 mm 4 mps 747 mmHg 49%
12:00 +33°C° 0 mm 4 mps 748 mmHg 45%
13:00 +33°C° 0 mm 5 mps 748 mmHg 44%
14:00 +33°C° 0 mm 5 mps 748 mmHg 43%
15:00 +34°C° 0 mm 5 mps 748 mmHg 41%
16:00 +33°C° 0 mm 5 mps 748 mmHg 42%
17:00 +32°C° 0 mm 5 mps 748 mmHg 43%
18:00 +30°C° 0 mm 5 mps 748 mmHg 44%
19:00 +29°C° 0 mm 4 mps 748 mmHg 48%
20:00 +27°C° 0 mm 4 mps 749 mmHg 52%
21:00 +25°C° 0 mm 3 mps 749 mmHg 56%
22:00 +24°C° 0 mm 3 mps 749 mmHg 56%
23:00 +22°C° 0 mm 3 mps 750 mmHg 56%
Show more